Wind_Speed
6 7 7 6 5 4 3 2 2 2 3 4 4 4 4 4 4 4 4 4 5 5 5 5 5 5 5 5 5 4 4 5 5 5 5 4 4 5 6 7 8 10 10
7 7 8 7 6 6 4 3 2 3 4 4 5 5 5 5 5 5 5 5 5 6 6 6 6 6 6 5 5 5 4 4 4 4 5 5 5 5 7 8 10 10 10
7 7 8 8 7 7 6 4 3 3 4 5 5 6 6 6 6 6 6 6 6 6 6 6 6 6 6 6 5 5 4 4 4 4 4 5 5 6 8 9 10 9 9
7 8 9 8 8 7 7 6 4 4 4 5 5 6 6 7 7 7 7 7 7 7 7 7 7 7 7 6 6 5 4 3 3 4 4 4 5 6 8 9 9 9 9
7 9 9 9 9 8 8 7 6 5 5 5 5 6 6 7 7 8 8 8 8 8 8 8 7 7 7 6 6 5 4 4 3 2 3 4 5 6 7 8 9 9 9
8 9 10 10 10 9 9 8 7 6 6 5 6 6 7 8 8 9 9 9 9 9 9 8 8 8 7 7 6 5 4 4 2 2 3 4 4 5 6 8 9 9 9
10 10 11 11 11 11 10 9 8 7 6 6 6 7 8 8 9 9 9 9 9 9 9 9 9 8 8 7 6 5 4 4 3 1 1 2 3 4 6 8 9 10 9
11 11 12 12 12 12 11 10 9 8 7 6 6 7 8 9 10 10 10 9 9 9 9 9 9 9 9 8 7 6 6 5 5 3 2 2 3 5 6 7 8 9 9
13 13 13 13 13 13 12 11 9 9 8 7 7 8 9 9 10 10 10 10 10 10 10 9 10 10 10 9 8 7 7 6 6 4 3 3 4 5 6 7 8 8 8
13 14 14 14 14 13 12 12 10 10 9 8 8 9 9 10 10 10 10 10 10 10 10 10 11 10 10 9 8 7 7 6 7 5 4 4 5 5 6 7 8 8 8
14 14 15 16 16 15 14 13 12 10 10 9 9 9 10 10 10 10 10 11 11 11 11 11 11 10 10 9 8 6 6 6 7 5 4 5 5 6 6 7 7 7 8
16 16 17 17 17 16 15 14 13 11 10 10 9 9 9 9 9 10 10 10 10 10 10 10 10 10 9 8 7 7 6 6 5 5 5 5 6 6 7 7 7 8 8
17 18 18 19 19 17 16 15 13 11 10 10 10 9 9 9 9 10 10 9 9 9 9 9 8 8 8 8 7 7 6 6 6 5 5 5 6 7 7 8 8 8 8
17 19 20 19 19 19 17 15 14 13 12 11 10 9 9 9 9 9 9 8 8 8 8 8 7 7 7 8 7 6 6 6 6 5 5 5 6 7 8 8 8 8 9
19 20 20 22 22 21 18 16 15 13 12 10 9 9 9 8 8 7 7 7 6 6 6 7 6 6 7 7 6 5 5 5 6 6 6 6 5 7 8 8 8 8 9
16 19 20 22 22 22 19 17 16 14 12 10 9 9 8 7 7 6 6 6 6 5 5 6 6 6 6 6 5 4 4 4 4 5 5 5 6 7 8 8 8 9 9
16 17 19 20 22 21 19 17 15 14 12 10 8 8 7 6 6 5 5 5 4 5 5 5 5 5 4 4 4 3 2 2 2 4 4 5 5 6 7 8 8 8 9
15 16 16 18 20 21 20 18 16 14 12 11 9 8 7 6 5 4 4 3 3 4 4 3 3 3 3 2 2 2 1 1 2 2 2 3 4 4 5 6 7 7 7
12 14 16 17 18 19 19 18 16 14 13 10 9 8 7 6 5 4 3 3 2 2 2 2 2 2 1 1 1 1 1 1 1 1 1 1 2 2 4 5 5 5 5
12 14 17 17 18 19 18 17 16 15 13 11 10 8 7 6 5 4 3 3 3 2 2 2 2 1 1 0 1 1 1 1 1 0 0 1 1 1 1 3 4 5 5
11 13 17 17 17 18 18 17 16 15 13 12 11 9 8 7 6 5 4 4 4 4 4 4 4 3 2 2 2 2 2 2 2 1 1 1 1 1 1 2 3 4 5
8 12 15 17 18 19 18 17 16 15 14 13 12 10 9 9 7 6 6 5 5 5 5 5 4 4 4 3 3 3 2 2 2 2 2 1 1 1 1 1 2 3 4
8 12 14 14 16 18 18 17 17 15 14 14 13 12 11 10 9 8 7 7 6 6 5 5 5 4 4 3 3 2 2 2 2 2 1 1 1 1 1 2 3 4 4
6 10 14 15 16 17 17 18 17 15 14 14 14 13 12 11 10 9 8 7 7 6 5 5 4 4 3 2 2 1 1 1 1 1 1 1 1 1 2 2 3 4 5
4 8 12 13 16 17 17 16 16 15 15 15 14 13 13 12 11 10 9 8 8 7 6 5 4 4 3 2 2 1 1 1 1 1 2 2 2 2 3 3 4 5 6
3 6 9 12 15 17 17 16 16 16 16 15 15 14 14 13 12 12 11 10 9 8 7 6 6 5 4 4 4 3 3 3 3 3 4 5 5 5 5 5 6 7 8
Wind_Direction
213 206 200 194 191 191 198 217 247 286 304 309 306 302 300 305 313 319 327 331 338 344 349 350 352 353 354 359 7 14 23 33 45 56 63 77 91 110 122 125 128 128 128
212 206 200 195 199 205 212 221 237 272 288 296 300 297 296 302 306 309 315 320 325 330 334 336 340 341 341 345 352 3 14 31 42 55 63 81 99 117 129 132 133 130 128
209 207 202 199 203 207 209 215 229 255 273 283 289 291 294 299 302 306 311 315 319 321 322 323 328 330 330 334 341 350 3 23 35 50 57 79 103 124 131 136 137 133 132
214 209 206 204 206 206 207 210 224 244 259 274 283 288 294 297 301 304 307 310 312 314 315 315 318 319 321 324 331 339 350 11 23 47 61 87 111 126 134 139 140 137 138
220 215 212 211 210 208 207 211 226 237 249 267 281 289 294 297 299 301 303 304 305 307 308 308 310 311 310 313 319 326 330 344 1 41 66 94 120 135 142 143 146 144 142
222 218 214 215 214 208 207 213 223 232 244 260 276 288 294 297 298 299 302 301 301 301 302 301 302 305 303 302 305 309 315 317 336 31 73 105 124 142 152 154 152 150 149
219 220 217 215 212 210 211 217 224 233 240 253 271 285 292 295 297 299 300 299 299 300 299 299 297 298 299 295 294 296 299 296 306 314 105 129 145 155 162 160 157 156 154
223 221 219 218 215 215 215 219 226 230 235 249 266 279 286 291 296 299 298 298 299 299 298 296 295 294 292 292 286 285 287 289 288 267 218 179 172 169 171 171 167 164 161
231 225 220 222 222 219 217 217 221 228 235 248 265 277 283 289 296 299 298 296 295 296 295 294 295 292 289 289 284 279 281 284 288 265 224 194 180 179 182 184 180 176 174
232 223 222 222 223 222 219 218 221 228 237 247 262 274 282 288 294 296 296 295 292 292 292 291 293 292 288 287 287 282 278 276 276 257 225 213 196 188 190 195 196 191 188
229 226 225 224 226 225 222 223 225 231 239 248 259 272 281 287 291 292 294 294 292 291 291 290 289 290 286 283 282 278 272 269 268 246 238 224 209 196 197 202 203 201 200
230 226 226 227 227 223 223 224 229 234 239 245 256 269 278 283 287 290 293 294 293 292 290 288 289 287 285 279 277 274 265 261 259 256 244 224 213 208 207 209 208 209 209
233 229 227 226 223 220 220 224 228 231 238 244 254 267 274 278 284 288 291 292 293 289 287 287 287 286 285 281 280 274 265 261 255 263 244 240 227 221 216 214 213 212 214
233 231 228 222 218 216 217 220 222 229 239 244 251 262 270 276 283 285 285 288 291 287 283 284 285 289 287 285 281 275 267 257 256 257 246 243 235 225 222 220 219 219 220
233 228 228 231 223 217 218 219 221 230 236 240 248 257 267 275 282 281 279 282 284 281 280 280 281 286 288 285 279 277 274 259 255 258 249 238 234 230 226 224 225 227 229
242 230 230 231 220 214 216 215 219 230 236 239 245 252 261 271 279 271 272 276 275 274 272 273 274 280 284 284 282 280 271 268 258 247 245 243 244 240 230 226 229 232 237
245 237 230 225 213 211 210 211 214 225 232 234 239 247 254 262 269 265 266 266 266 264 262 263 269 270 273 276 275 272 262 251 250 248 244 242 240 240 233 231 234 238 243
245 233 222 216 210 208 207 210 212 218 224 228 233 241 241 253 260 258 252 247 249 252 250 249 253 260 267 273 269 264 256 234 243 245 240 241 239 236 234 234 237 242 243
241 219 212 210 204 203 204 208 211 216 219 223 226 228 233 244 246 237 221 217 225 224 222 219 222 236 257 283 283 282 278 272 264 256 229 239 236 233 236 231 237 244 246
227 214 208 201 199 200 202 207 210 214 218 220 218 221 226 228 223 209 199 197 194 187 172 163 161 166 156 96 58 59 61 56 45 358 337 303 282 256 238 227 232 238 245
219 207 197 197 195 197 200 205 208 211 216 214 214 217 217 211 206 195 187 180 169 156 142 135 133 131 126 116 102 90 79 71 67 55 39 26 21 300 258 225 232 238 246
204 199 194 191 194 196 200 203 203 207 209 209 210 212 207 204 201 191 181 172 161 153 150 144 137 131 123 116 109 102 91 79 69 62 53 40 29 1 279 253 258 258 258
198 199 195 191 194 194 197 197 199 202 203 204 207 206 204 202 199 191 183 177 171 165 161 153 146 141 137 127 116 106 94 78 68 65 61 36 6 342 313 286 277 275 273
208 199 195 191 191 190 189 192 196 201 202 202 203 205 205 202 199 194 189 185 184 181 178 173 165 160 153 148 134 115 91 70 50 41 40 25 359 322 311 308 297 290 284
192 188 188 193 194 192 190 194 198 201 202 203 203 206 204 202 200 198 197 197 197 196 197 195 190 188 189 190 190 187 209 267 298 314 319 320 318 306 299 297 293 292 291
183 188 191 195 193 191 193 197 199 202 205 205 203 205 205 204 204 203 205 206 209 210 211 213 216 220 226 231 236 239 248 259 270 286 298 302 303 301 297 294 292 291 292
Height
5895 5896 5897 5898 5900 5901 5902 5903 5904 5905 5905 5906 5906 5906 5905 5905 5904 5903 5902 5901 5900 5899 5898 5897 5897 5896 5896 5895 5894 5894 5893 5893 5892 5891 5890 5890 5889 5889 5888 5889 5889 5890 5891
5894 5895 5896 5898 5899 5901 5902 5903 5904 5905 5905 5906 5906 5906 5905 5905 5904 5903 5902 5901 5900 5899 5898 5897 5897 5896 5896 5895 5895 5894 5893 5893 5892 5891 5891 5890 5889 5889 5889 5890 5890 5891 5892
5893 5894 5895 5897 5898 5900 5901 5902 5903 5904 5905 5905 5906 5906 5905 5905 5904 5903 5902 5901 5900 5899 5898 5897 5896 5896 5896 5895 5895 5894 5894 5893 5892 5892 5891 5890 5890 5890 5890 5890 5891 5892 5893
5891 5893 5894 5896 5897 5899 5900 5902 5903 5903 5904 5905 5905 5905 5905 5904 5904 5903 5902 5901 5900 5899 5898 5897 5896 5896 5896 5895 5895 5894 5894 5893 5893 5892 5892 5891 5891 5891 5891 5891 5892 5893 5894
5890 5892 5893 5895 5896 5898 5899 5900 5902 5903 5903 5904 5905 5905 5905 5904 5904 5903 5902 5901 5900 5899 5898 5897 5896 5896 5895 5895 5895 5894 5894 5893 5893 5893 5892 5892 5891 5891 5892 5892 5893 5894 5895
5889 5890 5891 5893 5895 5896 5898 5899 5901 5902 5902 5903 5904 5904 5904 5904 5903 5902 5901 5900 5899 5898 5897 5896 5896 5895 5895 5895 5894 5894 5894 5893 5893 5893 5893 5892 5892 5892 5892 5893 5894 5895 5896
5887 5888 5889 5891 5893 5895 5896 5898 5899 5901 5902 5902 5903 5903 5903 5903 5902 5901 5900 5899 5898 5897 5897 5896 5895 5894 5894 5894 5894 5894 5894 5894 5893 5893 5893 5893 5893 5893 5893 5894 5894 5895 5896
5884 5886 5887 5889 5891 5893 5894 5896 5898 5899 5900 5901 5902 5902 5902 5901 5901 5900 5899 5898 5897 5896 5896 5895 5894 5893 5893 5893 5893 5893 5893 5893 5893 5893 5893 5893 5893 5894 5894 5895 5895 5896 5897
5882 5883 5885 5887 5889 5891 5892 5894 5896 5898 5899 5900 5900 5900 5900 5900 5899 5899 5898 5897 5896 5896 5894 5894 5893 5892 5892 5891 5892 5892 5892 5892 5892 5892 5892 5893 5893 5894 5894 5895 5896 5897 5897
5878 5880 5883 5885 5887 5889 5891 5893 5894 5896 5897 5898 5898 5899 5899 5898 5898 5897 5896 5896 5895 5894 5893 5892 5891 5890 5890 5890 5890 5891 5891 5891 5890 5891 5891 5892 5893 5893 5894 5895 5896 5897 5898
5876 5878 5880 5882 5884 5887 5889 5891 5893 5894 5895 5896 5897 5897 5897 5897 5896 5895 5895 5894 5893 5892 5892 5891 5890 5889 5888 5888 5889 5889 5890 5890 5890 5890 5891 5891 5892 5892 5893 5895 5896 5897 5897
5873 5875 5877 5879 5881 5884 5886 5888 5890 5892 5893 5894 5895 5895 5895 5895 5894 5894 5893 5892 5891 5890 5890 5889 5888 5888 5887 5887 5887 5888 5888 5889 5889 5889 5890 5890 5891 5892 5893 5894 5895 5896 5897
5870 5872 5874 5876 5878 5881 5883 5886 5888 5890 5891 5892 5893 5893 5893 5893 5892 5892 5891 5891 5890 5889 5888 5888 5887 5886 5886 5886 5886 5886 5886 5887 5888 5888 5889 5889 5889 5890 5892 5893 5894 5895 5896
5866 5867 5869 5872 5874 5877 5880 5883 5885 5887 5888 5889 5891 5891 5891 5891 5890 5890 5890 5889 5888 5887 5887 5886 5886 5885 5885 5884 5885 5885 5885 5885 5886 5887 5887 5888 5888 5889 5890 5891 5892 5893 5894
5860 5863 5866 5869 5871 5874 5877 5880 5883 5884 5886 5887 5888 5889 5889 5889 5889 5888 5888 5887 5887 5886 5886 5885 5885 5884 5884 5883 5883 5884 5884 5884 5885 5885 5886 5886 5887 5888 5889 5890 5891 5891 5892
5855 5857 5861 5863 5867 5871 5874 5877 5880 5882 5883 5885 5886 5886 5887 5887 5887 5887 5886 5886 5885 5885 5884 5884 5884 5883 5883 5883 5882 5883 5883 5883 5883 5884 5884 5885 5885 5886 5887 5888 5889 5889 5890
5852 5854 5856 5859 5863 5867 5871 5874 5877 5879 5881 5882 5883 5884 5885 5885 5885 5885 5885 5884 5884 5884 5883 5883 5883 5882 5882 5882 5882 5882 5882 5883 5883 5883 5883 5884 5884 5885 5885 5886 5887 5887 5888
5848 5849 5852 5855 5859 5864 5868 5871 5874 5876 5878 5880 5881 5882 5883 5883 5883 5883 5883 5883 5883 5883 5882 5882 5882 5882 5882 5882 5882 5882 5882 5882 5882 5882 5883 5883 5883 5883 5884 5884 5885 5885 5886
5844 5844 5848 5852 5856 5861 5865 5868 5871 5873 5875 5877 5878 5880 5881 5881 5882 5882 5882 5882 5882 5882 5882 5882 5881 5881 5881 5881 5881 5881 5881 5882 5882 5882 5882 5882 5882 5882 5882 5883 5883 5884 5884
5840 5842 5845 5849 5854 5858 5862 5865 5868 5871 5873 5875 5876 5878 5879 5880 5880 5881 5881 5881 5881 5881 5881 5881 5881 5881 5881 5881 5881 5881 5881 5881 5881 5881 5881 5881 5881 5881 5881 5882 5882 5882 5883
5838 5839 5843 5847 5851 5855 5859 5863 5866 5868 5871 5873 5874 5876 5877 5878 5879 5880 5880 5881 5881 5881 5881 5881 5881 5881 5881 5881 5881 5881 5881 5881 5881 5881 5881 5881 5881 5880 5880 5881 5881 5881 5881
5837 5838 5841 5844 5848 5853 5857 5860 5863 5866 5868 5871 5873 5874 5875 5877 5878 5879 5879 5880 5881 5881 5881 5881 5881 5881 5882 5882 5882 5881 5881 5882 5881 5881 5881 5881 5881 5880 5880 5880 5880 5880 5880
5835 5837 5840 5843 5846 5850 5854 5858 5861 5864 5866 5869 5871 5872 5874 5875 5877 5878 5878 5879 5880 5880 5881 5881 5881 5881 5882 5882 5882 5882 5882 5881 5881 5881 5881 5881 5880 5880 5880 5879 5879 5879 5879
5834 5836 5838 5841 5844 5848 5852 5856 5859 5862 5864 5867 5869 5871 5872 5874 5875 5876 5877 5878 5879 5880 5880 5881 5881 5881 5881 5881 5881 5881 5881 5881 5881 5881 5881 5880 5880 5880 5879 5879 5878 5878 5877
5834 5835 5837 5840 5843 5846 5850 5854 5857 5860 5863 5865 5867 5869 5871 5873 5874 5875 5876 5877 5878 5879 5879 5880 5880 5880 5880 5881 5880 5880 5880 5880 5880 5880 5880 5879 5879 5879 5878 5877 5877 5876 5876
5834 5835 5836 5839 5841 5845 5849 5852 5856 5858 5861 5863 5865 5867 5869 5871 5872 5874 5875 5876 5877 5877 5878 5878 5879 5879 5879 5879 5879 5879 5879 5879 5879 5878 5878 5877 5877 5877 5876 5876 5875 5874 5873